Kingston, Jamaica

7:52 PM EST on December 04, 2016 (GMT -0500)
Norman Manley International

Weather History for MKJP - September, 2013

Change the Weather History Date:

Thursday, September 5, 2013

  Actual Average Record
Temperature  
Mean Temperature 85 °F -  
Max Temperature 91 °F 88 °F 92 °F (2016)
Min Temperature 79 °F 79 °F 76 °F (2012)
Cooling Degree Days 20    
Growing Degree Days 35 (Base 50)    
Moisture  
Dew Point 76 °F    
Average Humidity 73    
Maximum Humidity 89    
Minimum Humidity 34    
Precipitation  
Precipitation 0.00 in - - ()
Sea Level Pressure  
Sea Level Pressure 29.88 in    
Wind  
Wind Speed 7 mph ()    
Max Wind Speed 12 mph    
Max Gust Speed -    
Visibility 7.3 miles    
Events Rain , Thunderstorm    
Averages and records for this station are not official NWS values.
T = Trace of Precipitation, MM = Missing Value Source: Averaged Metar Reports

Daily Weather History Graph

Daily Weather History Graph

Search for Another Location

Airport or City:

Trip Planner

Search our weather history database for the weather conditions in past years. The results will help you decide how hot, cold, wet, or windy it might be!

Date:

Astronomy

Sep. 05, 2013 Rise Set
Actual Time 5:53 AM EST 6:17 PM EST
Civil Twilight 5:31 AM EST 6:39 PM EST
Nautical Twilight 5:06 AM EST 7:05 PM EST
Astronomical Twilight 4:40 AM EST 7:30 PM EST
Moon 5:54 AM EST 6:21 PM EST
Length of Visible Light 13h 07m
Length of Day
12h 23m
New Moon, 0% of the Moon is Illuminated
Sep 5
New Moon
Sep 12
First Quarter
Sep 19
Full
Sep 26
Last Quarter
Oct 4
New

Hourly Weather History & Observations

Time (EST) Temp. Heat Index Dew Point Humidity Pressure Visibility Wind Dir Wind Speed Gust Speed Precip Events Conditions
12:00 AM 82.4 °F 89.5 °F 75.2 °F 79% 29.92 in 6.2 mi NNW 6.9 mph - N/A   Partly Cloudy
1:00 AM 82.4 °F 90.9 °F 77.0 °F 84% 29.89 in 6.2 mi North 8.1 mph - N/A   Partly Cloudy
2:00 AM 82.4 °F 89.5 °F 75.2 °F 79% 29.89 in 6.2 mi North 11.5 mph - N/A   Partly Cloudy
3:00 AM 82.4 °F 88.2 °F 73.4 °F 74% 29.89 in 6.2 mi North 8.1 mph - N/A   Partly Cloudy
4:00 AM 82 °F - 73 °F 69% 29.89 in 12 mi NNW 4.6 mph - -   Scattered Clouds
4:00 AM 82.4 °F 88.2 °F 73.4 °F 74% 29.89 in 6.2 mi NNW 4.6 mph - N/A Thunderstorm Partly Cloudy
5:00 AM 80.6 °F 85.4 °F 73.4 °F 79% 29.89 in 6.2 mi NNW 5.8 mph - N/A   Partly Cloudy
6:00 AM 80.6 °F 85.4 °F 73.4 °F 79% 29.89 in 6.2 mi North 10.4 mph - N/A   Partly Cloudy
7:00 AM 81 °F - 75 °F 77% 29.91 in 14 mi NW 4.6 mph - -   Haze
7:00 AM 80.6 °F 86.2 °F 75.2 °F 84% 29.89 in 6.2 mi NW 4.6 mph - N/A   Partly Cloudy
8:00 AM 84.2 °F 92.3 °F 75.2 °F 74% 29.92 in 6.2 mi NNE 11.5 mph - N/A   Partly Cloudy
9:00 AM 86.0 °F 96.9 °F 77.0 °F 74% 29.92 in 6.2 mi NNW 6.9 mph - N/A   Partly Cloudy
10:00 AM 89 °F - 73 °F 51% 29.94 in 12 mi West 6.9 mph - -   Haze
10:00 AM 89.6 °F 98.2 °F 73.4 °F 59% 29.92 in 6.2 mi West 6.9 mph - N/A   Partly Cloudy
11:00 AM 87.8 °F 97.6 °F 75.2 °F 66% 29.92 in 6.2 mi SW 6.9 mph - N/A   Partly Cloudy
12:00 PM 89.6 °F 99.8 °F 75.2 °F 62% 29.92 in 6.2 mi South 4.6 mph - N/A   Partly Cloudy
1:00 PM 90 °F - 65 °F 34% 29.89 in 12 mi South 10.4 mph - -   Haze
1:00 PM 91.4 °F 94.0 °F 66.2 °F 43% 29.89 in 6.2 mi South 10.4 mph - N/A   Partly Cloudy
2:00 PM 89.6 °F 104.7 °F 78.8 °F 70% 29.86 in 6.2 mi South 8.1 mph - N/A   Partly Cloudy
2:10 PM 89.6 °F 104.7 °F 78.8 °F 70% 29.86 in 3.7 mi South 8.1 mph - N/A Thunderstorm Thunderstorm
3:00 PM 89.6 °F 99.8 °F 75.2 °F 62% 29.83 in 6.2 mi SSW 6.9 mph - N/A   Partly Cloudy
4:00 PM 88 °F - 79 °F 69% 29.84 in 12 mi SSW 8.1 mph - - Thunderstorm Light Thunderstorm
4:00 PM 87.8 °F 102.5 °F 78.8 °F 75% 29.83 in 6.2 mi SSW 8.1 mph - N/A   Partly Cloudy
5:00 PM 87.8 °F 102.5 °F 78.8 °F 75% 29.83 in 6.2 mi South 10.4 mph - N/A Rain Light Rain Showers
5:30 PM 86.0 °F 99.3 °F 78.8 °F 79% 29.83 in 6.2 mi South 9.2 mph - N/A Thunderstorm Thunderstorm
6:00 PM 86.0 °F 99.3 °F 78.8 °F 79% 29.83 in 6.2 mi South 9.2 mph - N/A   Scattered Clouds
7:00 PM 86 °F - 80 °F 77% 29.85 in 12 mi SW 6.9 mph - -   Haze
7:00 PM 86.0 °F 101.9 °F 80.6 °F 84% 29.83 in 6.2 mi SW 5.8 mph - N/A   Partly Cloudy
8:00 PM 84.2 °F 98.3 °F 80.6 °F 89% 29.86 in 6.2 mi NW 8.1 mph - N/A Rain Light Rain Showers
9:00 PM 82.4 °F 92.4 °F 78.8 °F 89% 2.98 in 6.2 mi SW 6.9 mph - N/A Rain , Thunderstorm Light Rain Showers
9:20 PM 82.4 °F 90.9 °F 77.0 °F 84% 29.89 in 6.2 mi SSW 6.9 mph - N/A Thunderstorm Thunderstorm
10:00 PM 80 °F - 76 °F 83% 29.92 in 9 mi SSW 6.9 mph - - Rain Light Rain
10:00 PM 80.6 °F 86.2 °F 75.2 °F 84% 29.92 in 6.2 mi SSW 6.9 mph - N/A Rain , Thunderstorm Light Rain Showers
11:00 PM 82.4 °F 90.9 °F 77.0 °F 84% 29.89 in 6.2 mi SE 3.5 mph - N/A Thunderstorm Scattered Clouds